{"data":{"norad_id":58640,"epoch":"2026-09-19T17:06:10.178784Z","epoch_age_seconds":217734,"freshness":"STALE","line1":"1 58640U 23203Y   26262.71261781  .00000268  00000+0  19265-4 0  9996","line2":"2 58640  43.0041  43.6612 0000855 263.0979  96.9776 15.27579087153333","mean_motion":15.27579087,"eccentricity":8.55e-5,"inclination_deg":43.0041,"raan_deg":43.6612,"arg_perigee_deg":263.0979,"mean_anomaly_deg":96.9776,"bstar":1.9265e-5,"rev_number":15333,"period_min":94.266805054788,"perigee_km":482.46519824651,"apogee_km":483.63846153642,"semimajor_km":6861.1888298915,"source":"CELESTRAK","updated_at":"2026-09-21T09:00:33.941706Z"}}